Temperature
24 24 23 23 22 22 22 21 21 21 20 20 20 19 19 19 19 19 19 19 19 18 18 18 18 18 18 18 18 18 18 18 18 17 18 18 18 18 18 18 18 18 18
24 24 23 23 22 22 22 21 21 21 20 20 20 20 19 19 19 19 19 18 18 18 18 18 18 18 18 18 18 18 18 18 18 17 17 18 18 18 18 18 18 18 18
24 24 23 23 23 22 22 22 21 21 21 20 20 19 19 19 19 19 19 19 18 18 18 18 18 18 18 18 18 18 18 18 18 18 17 17 18 18 18 18 18 18 18
25 24 24 23 23 23 22 22 22 21 21 20 20 20 20 20 19 19 19 19 19 18 18 18 18 18 18 18 18 18 18 18 18 18 17 17 17 17 18 18 18 18 18
25 25 24 24 24 23 23 22 22 21 21 20 20 20 20 20 19 19 19 19 19 18 18 18 18 18 18 18 18 18 18 18 18 18 17 17 17 17 17 17 18 18 18
25 25 25 24 24 23 23 22 22 22 21 21 20 20 20 20 19 19 19 19 19 19 18 18 18 18 18 18 18 18 18 18 18 17 17 17 17 17 17 17 17 17 18
25 25 24 24 24 24 23 23 22 22 21 21 21 20 20 20 19 19 19 19 19 19 19 18 18 18 18 18 18 18 18 18 18 18 17 17 17 17 17 17 17 17 17
26 25 25 25 24 24 24 23 23 22 22 21 21 20 20 20 19 19 19 19 19 19 19 18 18 18 18 18 18 18 18 18 18 17 17 17 17 17 17 17 17 17 17
26 26 25 25 25 24 24 23 23 23 22 22 21 20 20 20 20 19 19 19 19 19 19 19 18 18 18 18 18 18 18 17 17 17 17 17 17 17 17 17 17 16 16
26 26 26 25 25 25 24 24 23 23 23 22 21 21 20 20 20 19 19 19 19 19 19 19 19 18 18 18 18 18 17 17 17 17 17 17 17 17 17 16 16 16 16
26 26 26 26 25 25 24 24 23 23 23 22 21 21 20 20 20 20 19 19 19 19 19 19 19 18 18 18 18 18 17 17 17 17 17 17 17 17 16 16 16 16 16
26 26 25 25 24 24 24 24 23 23 23 22 21 21 20 20 20 20 20 19 19 19 19 19 18 18 18 18 18 17 17 17 17 17 17 17 16 16 16 16 16 16 16
25 25 25 25 25 24 24 24 23 23 23 22 22 21 21 20 20 20 20 19 19 19 19 19 18 18 18 18 17 17 17 17 17 17 16 16 16 16 16 16 16 15 15
25 25 24 24 24 24 24 24 23 23 23 22 22 22 21 21 20 20 20 19 19 19 19 18 18 18 18 18 17 17 17 17 17 16 16 16 16 16 16 16 15 15 15
24 25 24 24 24 24 24 24 23 23 23 22 22 22 21 21 20 20 20 19 19 19 19 18 18 18 18 17 17 17 17 17 17 16 16 16 16 16 15 15 15 15 15
24 24 24 24 24 24 24 23 23 23 22 22 22 21 21 20 20 20 19 19 19 19 18 18 18 18 17 17 17 17 17 16 16 16 16 16 15 15 15 15 15 15 14
24 24 24 24 24 24 24 23 23 23 22 22 22 21 21 20 20 19 19 19 19 19 18 18 18 17 17 17 17 16 16 16 16 16 15 15 15 15 15 15 14 14 14
24 24 24 24 24 24 23 23 23 23 22 22 21 21 20 20 20 19 19 19 19 18 18 17 17 17 17 17 16 16 16 16 15 15 15 15 15 15 14 14 14 14 14
24 24 24 24 24 24 23 23 22 22 22 21 21 21 20 20 20 19 19 18 18 18 17 17 17 16 16 16 16 16 16 16 15 15 15 14 14 14 14 14 14 14 13
24 23 23 23 23 23 23 22 22 21 21 21 21 20 20 20 19 19 18 18 18 18 17 16 16 16 16 16 16 15 15 15 15 15 14 14 14 14 14 13 13 13 13
23 23 23 23 22 22 22 21 21 21 21 21 20 20 19 19 19 18 18 18 17 17 16 16 16 16 16 15 15 15 15 15 14 14 14 14 13 13 13 13 13 13 12
22 22 22 22 21 21 21 21 20 20 20 20 20 19 19 18 18 18 17 17 17 16 16 16 15 15 15 15 15 14 14 14 14 14 13 13 13 13 12 12 12 12 12
21 21 21 21 20 20 20 20 20 19 19 19 18 18 18 18 18 17 17 17 16 16 15 15 15 15 15 14 14 14 14 13 13 13 13 12 12 12 12 12 12 12 12
19 20 20 19 19 19 19 19 19 19 18 18 18 18 17 17 17 16 16 16 15 15 15 15 15 14 14 14 14 14 13 13 13 12 12 12 12 12 12 11 11 11 11
19 19 19 19 18 18 18 18 18 18 18 18 17 17 17 16 16 16 15 15 15 15 15 14 14 14 14 14 13 13 13 12 12 12 12 11 11 11 11 11 11 11 10
18 18 18 18 18 18 18 17 17 17 17 17 17 16 16 16 15 15 15 15 14 14 14 14 14 13 13 13 13 12 12 12 12 11 11 11 11 11 10 10 10 10 10
Wind_Speed
11 12 12 13 11 10 10 9 8 7 6 4 3 3 3 3 3 4 8 10 9 10 8 4 4 4 4 5 5 3 3 3 2 1 2 3 3 4 5 5 5 8 13
10 12 11 12 12 12 11 10 9 9 7 5 4 3 3 3 3 3 5 8 8 9 8 5 5 4 4 4 4 4 2 3 3 3 1 2 4 3 4 4 6 6 7
16 15 14 13 12 12 12 11 10 9 8 7 4 2 1 0 0 2 2 4 7 7 7 7 5 5 5 5 5 5 5 4 3 3 4 3 4 3 3 4 4 4 4
15 14 14 14 14 14 12 10 10 9 8 7 6 6 5 4 4 3 3 3 5 6 7 7 7 5 4 5 5 5 4 4 4 3 3 4 4 3 3 3 3 4 5
17 17 16 15 13 13 12 10 10 9 8 7 8 7 5 4 3 2 3 3 3 4 5 6 5 5 5 5 5 4 4 4 4 4 3 3 3 4 3 4 4 3 4
16 15 14 12 10 11 11 11 11 10 9 9 8 7 7 5 4 4 4 3 2 2 3 4 4 4 4 5 5 5 5 5 5 4 4 4 3 4 4 5 5 4 4
15 14 14 13 12 12 12 12 12 10 10 9 8 8 7 7 6 5 5 4 3 2 3 3 3 3 4 4 4 5 5 5 5 5 5 5 5 4 4 4 4 4 3
14 15 15 15 14 14 13 12 12 10 10 10 8 7 7 6 5 5 4 5 4 4 4 4 4 4 4 4 4 4 5 5 5 6 5 5 5 4 4 4 4 3 3
15 15 14 14 13 14 13 14 13 11 10 10 9 7 7 6 6 5 5 4 3 3 3 3 3 3 3 4 3 4 5 4 5 5 5 5 4 4 4 4 4 4 4
13 13 13 14 13 13 12 12 12 12 10 10 9 8 7 7 6 5 5 5 4 3 3 3 3 3 3 4 3 3 4 4 5 4 4 4 3 3 2 3 3 4 5
13 13 12 12 11 10 11 11 12 11 10 10 8 7 7 7 6 5 5 5 4 4 3 3 3 3 3 3 3 3 3 4 4 3 3 4 3 3 3 2 2 3 3
14 13 11 10 9 10 10 11 11 11 10 10 8 8 7 7 6 6 6 5 5 4 3 3 2 2 1 2 2 3 3 3 3 3 2 3 3 2 2 2 2 3 3
11 10 10 10 10 10 10 10 11 11 10 10 9 8 8 7 7 7 6 5 5 4 3 3 2 2 1 1 1 1 2 2 2 2 1 2 1 2 2 2 2 3 2
12 11 9 9 9 9 9 10 10 10 11 10 10 10 9 8 8 6 6 5 5 5 4 3 2 2 1 0 1 1 1 1 1 1 1 1 1 2 2 2 2 2 2
10 10 9 7 8 8 7 8 9 9 10 10 10 10 8 8 7 6 5 5 4 5 4 3 2 1 1 0 1 1 1 1 1 1 1 1 1 1 2 1 2 2 1
10 11 11 10 10 10 9 8 8 9 10 11 10 9 8 7 7 6 6 5 4 4 4 3 3 1 0 1 0 0 1 1 1 1 1 0 1 2 1 1 0 1 1
9 10 9 10 10 10 9 9 9 9 9 9 9 8 8 7 6 7 6 6 5 5 5 4 3 2 0 1 1 1 0 0 1 1 1 1 1 1 1 1 1 2 1
8 8 8 7 7 7 7 7 8 9 10 9 9 8 8 7 5 5 6 5 5 5 4 4 3 2 0 1 1 1 1 0 1 1 1 1 1 2 0 0 1 2 2
6 6 6 6 6 7 8 8 7 8 8 9 9 9 9 8 8 7 5 4 4 4 4 3 3 3 0 1 1 0 1 1 1 1 1 0 0 2 1 2 1 2 3
5 5 4 5 5 5 7 8 7 7 7 8 8 9 9 9 8 7 6 4 4 4 4 3 3 3 1 1 1 1 1 1 0 1 2 2 1 2 2 1 0 1 2
5 5 6 5 4 4 7 7 6 6 5 5 7 7 8 8 7 6 5 4 4 5 4 4 3 2 2 1 1 2 2 1 1 0 1 2 2 2 2 1 0 1 2
5 6 6 4 2 3 6 6 4 4 4 5 6 7 7 6 6 6 5 4 5 5 4 4 2 1 1 1 1 1 1 1 2 1 1 1 2 2 2 2 1 2 2
5 5 6 5 3 3 5 6 3 3 5 6 5 5 5 5 5 6 5 4 4 4 3 3 3 1 0 1 2 0 0 1 1 0 0 1 2 2 2 3 2 2 1
4 5 6 5 3 2 4 5 4 5 6 7 6 6 6 5 4 4 4 4 3 4 3 3 3 2 1 0 1 1 1 1 1 1 1 1 2 2 2 3 2 1 0
4 5 5 4 3 3 4 4 4 5 6 6 6 5 5 6 5 4 3 3 2 3 4 4 3 3 2 3 3 2 1 1 1 1 1 1 2 2 2 2 2 1 1
4 5 4 3 3 3 4 3 4 5 6 5 5 5 5 5 5 5 4 6 4 4 4 4 4 2 2 4 4 3 3 3 3 3 2 1 1 1 1 2 2 2 2
Wind_Direction
180 170 169 167 164 165 166 165 166 177 168 166 174 176 196 203 202 204 201 196 195 190 185 187 183 179 183 199 199 188 197 212 179 149 305 302 272 244 235 222 213 215 216
172 174 172 171 172 174 175 173 173 178 180 182 181 179 180 201 204 210 201 199 197 193 189 183 186 185 188 199 201 190 182 211 180 166 165 311 322 292 248 233 224 224 213
180 181 179 179 177 181 182 183 181 181 186 181 167 161 136 87 201 212 205 204 194 193 193 191 189 191 190 202 207 195 189 210 220 186 166 180 239 287 294 248 230 217 212
181 183 182 183 186 188 184 181 179 179 183 176 173 178 186 197 213 205 204 209 199 198 202 200 196 192 192 202 215 200 192 192 218 229 215 200 183 199 292 306 268 238 225
182 184 185 187 188 184 181 181 176 180 184 182 180 183 193 199 203 196 195 206 209 209 211 204 196 196 199 205 212 203 203 201 206 211 214 221 218 200 207 272 292 291 256
182 183 184 179 180 179 179 178 178 185 184 184 184 187 192 191 187 197 200 210 216 227 227 207 200 201 203 208 212 211 215 218 217 213 205 202 208 209 205 236 255 262 267
178 176 176 177 180 180 180 179 179 185 185 185 189 193 194 190 194 197 200 198 204 218 228 217 206 209 212 216 215 215 222 221 223 223 222 221 224 209 200 217 243 248 263
176 178 180 182 183 182 179 178 182 185 185 188 192 192 190 189 193 196 192 195 199 210 217 211 210 212 215 222 218 225 232 230 232 240 233 232 237 222 209 208 215 246 262
176 180 179 181 181 181 183 182 183 185 187 189 190 191 190 189 193 194 190 194 203 212 211 210 209 217 222 228 222 231 241 237 237 246 245 243 247 238 228 219 206 207 237
174 177 179 179 182 185 182 179 183 186 188 187 190 195 192 192 191 188 190 192 201 206 201 213 213 221 232 235 225 237 246 241 248 245 244 252 255 257 250 238 228 211 212
173 181 178 176 176 173 175 180 184 184 186 187 188 183 182 183 179 180 187 190 197 198 203 213 217 229 243 245 234 242 244 239 250 251 244 251 244 250 252 240 237 231 211
171 175 169 163 166 172 175 179 183 183 185 181 177 177 178 178 180 184 189 187 192 197 196 193 198 218 242 256 254 261 258 243 246 252 244 256 257 246 248 241 248 243 222
164 160 159 165 173 179 180 179 183 184 181 175 175 176 180 182 187 190 189 187 187 190 184 166 174 192 208 259 277 265 266 258 246 245 243 269 259 261 255 245 256 262 259
163 160 164 167 172 181 183 184 187 183 178 175 178 183 189 189 189 187 184 182 178 177 175 166 167 175 185 284 308 300 255 269 275 255 219 235 230 250 262 258 255 254 252
163 165 167 177 174 173 183 196 192 184 178 176 183 190 188 182 176 175 177 176 176 177 165 157 157 158 144 309 299 283 262 260 270 284 249 234 239 251 252 250 250 233 227
177 178 175 182 181 178 185 195 197 186 177 180 186 182 176 176 177 173 166 171 175 166 153 157 159 154 154 308 310 299 278 269 250 270 289 289 24 356 324 296 113 148 203
172 181 181 183 183 181 179 184 187 179 177 182 179 174 170 171 180 173 168 175 179 168 160 166 161 160 263 312 319 309 205 246 270 272 274 319 344 344 335 329 5 7 355
160 164 173 177 175 173 168 167 167 166 168 168 167 165 166 163 161 163 175 178 171 167 169 174 168 164 315 337 324 311 151 117 294 274 229 222 315 330 322 143 10 343 336
163 162 163 162 164 167 166 154 158 161 162 167 171 167 162 157 160 170 172 171 164 161 166 165 161 157 209 338 335 43 127 111 342 350 16 14 279 335 42 90 28 340 330
136 138 126 120 134 158 151 148 153 154 167 175 173 166 162 162 165 168 169 162 155 156 153 145 155 159 152 38 37 112 117 134 100 22 18 14 5 2 49 96 110 318 311
102 110 115 118 145 155 149 149 150 164 175 165 159 160 162 160 158 159 160 153 151 148 149 152 159 159 158 154 128 131 137 169 154 135 341 344 360 18 32 63 38 284 315
99 102 105 105 111 131 136 135 154 167 148 139 143 151 154 154 151 149 153 157 156 156 161 159 158 145 107 50 341 133 142 148 138 175 262 311 333 3 14 18 3 10 31
112 107 106 98 89 102 130 133 147 135 127 125 129 131 136 141 143 146 149 148 150 153 159 163 168 169 95 346 345 27 98 123 114 104 342 313 310 325 337 338 347 16 43
111 103 104 99 92 103 111 126 139 138 136 132 136 136 132 126 121 121 130 138 150 156 157 165 172 175 176 305 337 353 28 57 59 11 336 328 327 339 336 344 352 355 317
120 115 117 118 117 121 115 128 136 132 130 131 133 133 129 130 120 110 108 133 151 175 167 175 172 173 204 238 206 163 151 159 151 61 35 33 31 25 13 3 347 342 346
131 127 128 128 133 134 126 128 139 135 135 137 142 146 139 135 139 133 98 56 74 79 112 150 151 145 153 145 139 128 117 112 112 97 78 57 50 34 5 357 347 343 330
Height
1533 1536 1538 1540 1541 1543 1544 1545 1546 1547 1548 1549 1550 1551 1552 1553 1554 1555 1556 1557 1558 1559 1560 1560 1561 1562 1562 1563 1563 1564 1564 1564 1565 1565 1565 1565 1565 1565 1564 1565 1564 1565 1565
1531 1533 1535 1537 1539 1540 1542 1543 1544 1546 1547 1548 1549 1550 1551 1551 1552 1553 1554 1555 1556 1557 1558 1558 1559 1559 1560 1561 1561 1561 1562 1562 1562 1563 1563 1563 1563 1561 1561 1561 1561 1561 1562
1526 1530 1532 1534 1536 1538 1540 1541 1542 1544 1545 1546 1547 1549 1550 1550 1551 1551 1551 1553 1554 1555 1556 1557 1557 1557 1558 1558 1559 1559 1559 1559 1560 1560 1561 1561 1559 1559 1558 1558 1558 1558 1558
1523 1526 1529 1532 1533 1536 1538 1540 1541 1542 1543 1545 1546 1546 1547 1548 1549 1550 1550 1551 1552 1553 1554 1554 1555 1555 1556 1556 1556 1556 1556 1557 1557 1557 1558 1558 1558 1557 1555 1555 1555 1555 1555
1519 1523 1525 1528 1531 1534 1536 1538 1539 1540 1542 1543 1544 1545 1546 1547 1548 1549 1549 1549 1550 1551 1551 1552 1552 1553 1553 1553 1553 1553 1554 1553 1553 1554 1554 1554 1554 1554 1554 1552 1551 1551 1551
1516 1520 1524 1527 1530 1532 1534 1535 1537 1538 1540 1541 1542 1543 1544 1546 1546 1547 1547 1548 1548 1549 1549 1549 1550 1550 1550 1550 1550 1550 1551 1551 1551 1551 1551 1551 1551 1550 1550 1549 1547 1547 1547
1513 1517 1521 1524 1527 1529 1531 1533 1535 1536 1538 1539 1541 1542 1543 1544 1545 1545 1546 1546 1546 1547 1547 1547 1547 1547 1547 1547 1547 1547 1547 1547 1547 1547 1547 1547 1547 1547 1546 1546 1544 1543 1543
1511 1514 1517 1521 1524 1527 1529 1531 1533 1535 1536 1538 1539 1540 1541 1542 1543 1544 1544 1544 1545 1545 1545 1545 1545 1545 1545 1544 1544 1544 1544 1544 1543 1543 1543 1543 1543 1543 1542 1542 1541 1540 1539
1507 1511 1514 1518 1522 1524 1527 1529 1531 1533 1534 1536 1537 1538 1539 1540 1541 1542 1542 1543 1543 1543 1543 1543 1542 1542 1542 1542 1541 1541 1540 1540 1540 1540 1539 1539 1539 1539 1538 1538 1537 1537 1535
1505 1508 1512 1515 1519 1522 1524 1527 1529 1531 1532 1534 1535 1537 1538 1539 1539 1540 1540 1541 1541 1541 1541 1541 1540 1540 1539 1539 1538 1537 1537 1536 1536 1536 1535 1535 1534 1534 1534 1533 1533 1533 1532
1502 1506 1509 1512 1516 1520 1523 1525 1527 1529 1531 1532 1534 1535 1536 1537 1538 1538 1538 1538 1539 1538 1538 1538 1538 1537 1537 1536 1535 1535 1534 1533 1533 1532 1531 1530 1530 1530 1529 1529 1528 1528 1528
1499 1502 1507 1510 1514 1517 1520 1523 1525 1527 1529 1530 1532 1533 1534 1535 1536 1536 1537 1537 1537 1536 1536 1536 1536 1535 1535 1534 1533 1532 1531 1530 1529 1528 1528 1527 1526 1525 1525 1525 1524 1524 1524
1497 1501 1505 1507 1511 1514 1517 1519 1521 1524 1526 1528 1530 1530 1531 1532 1533 1534 1534 1534 1534 1534 1534 1534 1534 1533 1533 1532 1531 1530 1529 1528 1527 1526 1525 1524 1523 1522 1521 1521 1520 1520 1520
1495 1498 1502 1504 1508 1511 1514 1516 1518 1520 1523 1525 1526 1527 1528 1529 1530 1531 1532 1532 1532 1532 1532 1532 1532 1531 1530 1530 1529 1528 1527 1526 1525 1524 1523 1521 1520 1519 1518 1517 1517 1516 1516
1495 1497 1500 1503 1505 1508 1511 1512 1515 1517 1519 1521 1523 1524 1525 1526 1527 1528 1529 1530 1530 1530 1530 1530 1530 1529 1528 1527 1527 1526 1525 1524 1523 1521 1520 1519 1518 1517 1516 1515 1514 1513 1513
1494 1496 1498 1500 1502 1503 1505 1508 1512 1514 1516 1518 1519 1521 1522 1524 1525 1525 1526 1527 1528 1528 1528 1528 1528 1527 1526 1526 1525 1524 1523 1522 1521 1519 1518 1517 1516 1514 1513 1512 1511 1510 1510
1490 1493 1494 1497 1498 1500 1501 1504 1507 1510 1513 1514 1515 1517 1519 1521 1522 1523 1523 1524 1524 1525 1525 1525 1525 1525 1525 1524 1523 1522 1521 1520 1519 1517 1516 1514 1513 1512 1511 1510 1509 1508 1507
1486 1489 1491 1492 1493 1496 1498 1500 1502 1505 1508 1509 1511 1512 1515 1517 1519 1519 1520 1521 1521 1522 1522 1523 1522 1523 1522 1521 1520 1520 1519 1517 1516 1515 1514 1512 1511 1510 1508 1507 1506 1505 1505
1482 1485 1487 1488 1489 1492 1494 1496 1498 1501 1503 1505 1507 1508 1511 1513 1515 1516 1517 1518 1519 1519 1519 1520 1520 1520 1519 1519 1518 1517 1516 1515 1514 1512 1511 1510 1509 1508 1506 1505 1504 1503 1502
1480 1482 1484 1486 1487 1489 1491 1492 1494 1496 1498 1501 1503 1505 1507 1509 1511 1513 1514 1515 1516 1516 1517 1517 1517 1517 1516 1516 1515 1515 1513 1512 1511 1510 1509 1508 1507 1506 1504 1503 1502 1501 1500
1478 1480 1482 1483 1485 1487 1489 1490 1491 1492 1495 1498 1500 1502 1503 1505 1507 1509 1510 1511 1513 1513 1514 1514 1515 1514 1513 1512 1512 1511 1510 1509 1508 1508 1507 1506 1505 1503 1502 1501 1500 1499 1499
1477 1478 1479 1481 1483 1484 1486 1487 1490 1491 1493 1494 1496 1498 1500 1502 1504 1506 1507 1508 1509 1510 1511 1511 1512 1512 1511 1510 1509 1509 1508 1507 1506 1505 1504 1504 1503 1502 1501 1500 1499 1498 1497
1475 1477 1478 1479 1481 1482 1484 1485 1487 1489 1491 1492 1493 1495 1498 1500 1501 1503 1504 1505 1506 1507 1507 1508 1509 1509 1509 1508 1507 1506 1505 1504 1503 1503 1502 1502 1501 1500 1499 1498 1497 1496 1495
1475 1475 1477 1478 1479 1481 1482 1483 1485 1488 1489 1489 1491 1493 1495 1496 1498 1499 1501 1503 1504 1504 1504 1505 1505 1506 1506 1505 1504 1503 1503 1502 1501 1501 1500 1500 1499 1498 1497 1496 1495 1494 1493
1472 1475 1476 1476 1477 1479 1480 1482 1484 1485 1486 1487 1489 1490 1493 1494 1496 1497 1499 1500 1501 1501 1501 1502 1503 1503 1502 1502 1502 1501 1500 1500 1499 1499 1498 1497 1497 1496 1495 1494 1493 1492 1491
1472 1473 1474 1475 1476 1477 1478 1480 1482 1483 1484 1485 1486 1488 1490 1492 1494 1496 1497 1497 1498 1498 1499 1500 1500 1500 1500 1499 1499 1498 1498 1497 1497 1497 1496 1495 1495 1494 1493 1493 1492 1491 1490